[[{"header":{"parameterUnit":"m.s-1","parameterCategory":1,"la1":30.2991,"la2":30.254,"lo1":-89.0895,"lo2":-89.0444,"dy":0.0017,"dx":0.0017,"nx":28,"ny":28,"refTime":"2025-06-22T03:00:00:Z","depth":0,"parameterNumber":2,"parameterNumberName":"U-component_of_WINDS"},"data":[0,0,0,0,0,0,0,0,0,0,0,0,0,0,0,0,0,0,0,0,0,0,0,0,0,0,0,0,0,0,0,0,0,0,0,0,0,0,0,0,0,0,0,0,0,0,0,0,0,0,0,0,0,0,0,0,0,0,-2.171,-2.1709,0,-2.1644,-2.1643,-2.1642,-2.1568,-2.1567,-2.1566,-2.1565,-2.1496,-2.1495,-2.1494,0,0,0,0,0,0,0,0,0,0,0,0,0,-2.1773,-2.1772,-2.171,-2.1709,-2.1709,-2.1644,-2.1643,-2.1642,-2.1569,-2.1567,-2.1566,-2.1565,-2.1496,-2.1495,-2.1494,0,0,0,0,0,0,0,0,0,0,0,0,0,-2.173,-2.1772,-2.171,-2.1664,-2.1659,-2.1644,-2.1643,-2.1642,-2.1569,-2.1567,-2.1566,-2.1564,-2.1497,-2.1495,-2.1494,-2.1519,0,0,-2.149,-2.149,0,0,0,0,0,0,0,0,-2.1733,-2.1728,-2.1672,-2.1667,-2.1662,-2.1613,-2.164,-2.1601,-2.1569,-2.1603,-2.1565,-2.1563,-2.1536,-2.1531,-2.1523,-2.1516,-2.1513,-2.149,-2.1489,-2.1489,-2.1489,0,0,0,0,0,0,0,-2.1736,-2.173,-2.1684,-2.1671,-2.1665,-2.1647,-2.1639,-2.1632,-2.1579,-2.16,-2.1595,-2.1588,-2.1533,-2.1524,-2.152,-2.1512,-2.149,-2.1489,-2.1488,-2.1488,-2.1523,-2.1525,0,0,0,0,0,0,-2.1746,-2.1733,-2.1686,-2.1682,-2.1694,-2.1647,-2.1638,-2.163,-2.1579,-2.157,-2.1589,-2.1585,-2.1527,-2.1522,-2.1518,-2.1544,-2.1489,-2.1488,-2.1487,-2.1521,-2.1524,-2.1525,0,0,0,0,0,0,-2.1747,-2.1742,-2.1689,-2.1706,-2.1698,-2.1648,-2.1639,-2.163,-2.162,-2.1571,-2.1561,-2.159,-2.1525,-2.1519,-2.152,-2.154,-2.1487,-2.1486,-2.1519,-2.1522,-2.1524,-2.1596,0,0,0,0,0,0,-2.175,-2.1743,-2.1752,-2.1707,-2.1697,-2.1692,-2.1641,-2.163,-2.1619,-2.1612,-2.1569,-2.156,-2.1524,-2.1522,-2.1518,-2.1538,-2.1485,-2.1517,-2.1521,-2.1524,-2.1592,-2.1601,-2.1609,0,0,0,0,0,-2.1752,-2.1774,-2.1753,-2.1747,-2.1707,-2.1693,-2.1687,-2.1645,-2.1621,-2.1629,-2.1598,-2.1562,-2.1539,-2.1522,-2.1518,-2.1537,-2.1516,-2.152,-2.1523,-2.1588,-2.1599,-2.1608,0,0,0,0,0,0,-2.1822,-2.1767,-2.1743,-2.1751,-2.1728,-2.1681,-2.1689,-2.1658,-2.1641,-2.1635,-2.1583,-2.1574,-2.1581,-2.1559,-2.1541,-2.1559,-2.1522,-2.1525,-2.1573,-2.1583,-2.1591,-2.1596,-2.1484,0,0,0,0,0,-2.1838,-2.1832,-2.1784,-2.1796,-2.1786,-2.174,-2.1732,-2.1702,-2.1675,-2.1665,-2.1633,-2.1609,-2.1596,-2.1588,-2.1574,-2.1589,-2.1579,-2.16,-2.1609,-2.1616,-2.1619,-2.1626,-2.1635,-2.1538,-2.1538,-2.1538,0,0,-2.1872,-2.1841,-2.184,-2.1809,-2.1787,-2.1782,-2.1732,-2.1728,-2.1723,-2.1664,-2.1662,-2.1639,-2.1608,-2.1616,-2.1618,-2.1598,-2.1644,-2.1621,-2.1627,-2.1625,-2.1631,-2.164,-2.1648,-2.154,-2.154,-2.154,0,0,-2.1929,-2.1906,-2.1913,-2.1893,-2.1861,-2.1831,-2.1834,-2.1792,-2.1774,-2.1772,-2.1728,-2.1722,-2.1701,-2.1681,-2.1669,-2.1723,-2.1689,-2.172,-2.1763,-2.1771,-2.1779,-2.1785,-2.1804,-2.1812,-2.1723,-2.1723,-2.1723,0,-2.1975,-2.1965,-2.1921,-2.192,-2.1908,-2.1857,-2.1864,-2.1846,-2.1811,-2.1805,-2.1783,-2.1757,-2.1733,-2.1736,-2.1749,-2.1741,-2.1742,-2.1723,-2.1781,-2.1787,-2.1793,-2.181,-2.1818,-2.1727,-2.1726,-2.1726,-2.1726,0,-2.2022,-2.2016,-2.2026,-2.1995,-2.1984,-2.1988,-2.1945,-2.194,-2.1912,-2.1885,-2.1884,-2.1853,-2.1832,-2.1831,-2.1803,-2.1831,-2.182,-2.1791,-2.1752,-2.1807,-2.1822,-2.1829,-2.1732,-2.1731,-2.173,-2.1729,0,0,-2.2119,-2.2066,-2.207,-2.2056,-2.2019,-2.2013,-2.2015,-2.1995,-2.1992,-2.1971,-2.1971,-2.1956,-2.193,-2.1915,-2.1885,-2.1892,-2.1937,-2.1862,-2.186,-2.1877,-2.1967,-2.1988,-2.1997,-2.1916,-2.1917,-2.1918,-2.1969,0,-2.217,-2.217,-2.2132,-2.2143,-2.2137,-2.2089,-2.2091,-2.2068,-2.2044,-2.2035,-2.2008,-2.1998,-2.1964,-2.1955,-2.196,-2.1931,-2.1955,-2.1927,-2.1915,-2.1915,-2.1923,-2.2005,-2.2027,-2.2077,-2.1975,-2.1976,-2.1977,0,-2.2228,-2.2212,-2.2222,-2.2186,-2.2182,-2.2184,-2.2164,-2.2157,-2.2131,-2.2113,-2.2098,-2.2065,-2.2064,-2.203,-2.2029,-2.2011,-2.2004,-2.199,-2.1991,-2.1987,-2.1948,-2.2003,-2.2092,-2.21,-2.1986,-2.1986,-2.1985,0,-2.2298,-2.2278,-2.2282,-2.2272,-2.2229,-2.2232,-2.2215,-2.2187,-2.2179,-2.2162,-2.2156,-2.2139,-2.2129,-2.2117,-2.208,-2.2058,-2.2084,-2.2046,-2.2068,-2.207,-2.2074,-2.2074,-2.2163,-2.2072,-2.2072,-2.2072,-2.2072,0,-2.2358,-2.2366,-2.2313,-2.2315,-2.2324,-2.2281,-2.229,-2.2268,-2.2245,-2.2242,-2.22,-2.2199,-2.215,-2.2144,-2.2115,-2.2119,-2.2115,-2.21,-2.2092,-2.2103,-2.2105,-2.2097,-2.2092,-2.2074,-2.2073,-2.2073,-2.2073,0,-2.2436,-2.2401,-2.2402,-2.2363,-2.2354,-2.2362,-2.2328,-2.2329,-2.2303,-2.23,-2.2297,-2.2256,-2.2246,-2.2209,-2.219,-2.217,-2.2184,-2.2169,-2.2193,-2.2187,-2.2212,-2.221,-2.2298,-2.2307,-2.2211,-2.2212,-2.2213,0,-2.2476,-2.2481,-2.2444,-2.244,-2.2424,-2.2418,-2.2409,-2.2369,-2.2361,-2.2334,-2.2338,-2.2326,-2.2313,-2.23,-2.2268,-2.2254,-2.2238,-2.227,-2.2235,-2.2247,-2.2238,-2.2238,-2.2238,-2.2277,-2.2278,-2.2279,-2.228,0,-2.2551,-2.2534,-2.2523,-2.2508,-2.2499,-2.2485,-2.2467,-2.2466,-2.2421,-2.2416,-2.2406,-2.2396,-2.2378,-2.2366,-2.2347,-2.2329,-2.2297,-2.2291,-2.2296,-2.2306,-2.232,-2.2313,-2.2212,-2.2289,-2.2288,-2.2287,-2.2287,-2.2286,-2.261,-2.2614,-2.2588,-2.2578,-2.2562,-2.2548,-2.2547,-2.2522,-2.2513,-2.2495,-2.2472,-2.2465,-2.2441,-2.2412,-2.2397,-2.2392,-2.2374,-2.238,-2.2382,-2.2384,-2.2389,-2.2322,-2.2388,-2.2388,-2.2388,-2.2387,-2.2387,0,-2.2683,-2.2665,-2.2656,-2.2635,-2.2628,-2.26,-2.258,-2.2576,-2.2571,-2.2551,-2.2541,-2.253,-2.2519,-2.2488,-2.2474,-2.2476,-2.2461,-2.2473,-2.2472,-2.2469,-2.2406,-2.2404,-2.2486,-2.2486,-2.2485,-2.2485,-2.2485,-2.2485,-2.2719,-2.2723,-2.2704,-2.27,-2.2681,-2.2675,-2.2667,-2.2654,-2.2638,-2.2628,-2.2619,-2.26,-2.2576,-2.256,-2.2549,-2.254,-2.2537,-2.2554,-2.254,-2.2482,-2.2473,-2.2464,-2.2461,-2.2554,-2.2554,-2.2603,-2.2603,-2.2604]},{"header":{"parameterUnit":"m.s-1","parameterCategory":1,"la1":30.2991,"la2":30.254,"lo1":-89.0895,"lo2":-89.0444,"dy":0.0017,"dx":0.0017,"nx":28,"ny":28,"refTime":"2025-06-22T03:00:00:Z","depth":0,"parameterNumber":3,"parameterNumberName":"V-component_of_WINDS"},"data":[0,0,0,0,0,0,0,0,0,0,0,0,0,0,0,0,0,0,0,0,0,0,0,0,0,0,0,0,0,0,0,0,0,0,0,0,0,0,0,0,0,0,0,0,0,0,0,0,0,0,0,0,0,0,0,0,0,0,2.0872,2.0872,0,2.0842,2.0842,2.0841,2.0872,2.0874,2.0875,2.0876,2.0841,2.0839,2.0837,0,0,0,0,0,0,0,0,0,0,0,0,0,2.0954,2.0952,2.0872,2.0872,2.0871,2.0842,2.0842,2.0841,2.0872,2.0874,2.0875,2.0877,2.0842,2.084,2.0837,0,0,0,0,0,0,0,0,0,0,0,0,0,2.092,2.0952,2.0872,2.0883,2.0884,2.0842,2.0842,2.0841,2.0872,2.0874,2.0876,2.0877,2.0843,2.084,2.0837,2.0781,0,0,2.0827,2.0826,0,0,0,0,0,0,0,0,2.0922,2.0917,2.0882,2.0883,2.0883,2.0863,2.0858,2.0821,2.0871,2.0876,2.0876,2.0878,2.0847,2.0844,2.0834,2.078,2.0778,2.0827,2.0825,2.0824,2.0823,0,0,0,0,0,0,0,2.0924,2.0919,2.086,2.0882,2.0882,2.0889,2.0886,2.0851,2.0852,2.0876,2.0878,2.0875,2.0847,2.0837,2.0833,2.0778,2.0827,2.0824,2.0823,2.0821,2.0676,2.0674,0,0,0,0,0,0,2.0926,2.092,2.0861,2.0859,2.0908,2.0886,2.0883,2.0868,2.0852,2.0852,2.0873,2.0876,2.0841,2.0837,2.0832,2.0765,2.0824,2.0821,2.0819,2.0678,2.0676,2.0674,0,0,0,0,0,0,2.0928,2.092,2.0862,2.089,2.0884,2.0883,2.0865,2.0866,2.0855,2.085,2.085,2.0862,2.0842,2.0836,2.0794,2.0765,2.082,2.0817,2.0681,2.0678,2.0675,2.0632,0,0,0,0,0,0,2.093,2.0921,2.09,2.089,2.0882,2.0825,2.0863,2.0864,2.085,2.0854,2.0839,2.0839,2.0843,2.0798,2.0791,2.0761,2.0814,2.0683,2.0679,2.0676,2.0636,2.0628,2.0621,0,0,0,0,0,2.0933,2.0888,2.0899,2.0891,2.0856,2.0823,2.0819,2.0826,2.0848,2.0827,2.0823,2.0839,2.077,2.0794,2.0786,2.0755,2.0685,2.068,2.0676,2.0639,2.0629,2.0621,0,0,0,0,0,0,2.0893,2.0887,2.0899,2.085,2.0837,2.0829,2.0802,2.0815,2.0795,2.0799,2.0808,2.0805,2.0759,2.0753,2.078,2.07,2.0731,2.0724,2.0706,2.0696,2.0689,2.069,2.0812,0,0,0,0,0,2.088,2.0854,2.085,2.0807,2.0801,2.0803,2.0788,2.0795,2.0782,2.0776,2.077,2.0755,2.073,2.0713,2.069,2.0636,2.0633,2.0611,2.0604,2.0597,2.0591,2.0562,2.0552,2.0659,2.0659,2.0659,0,0,2.085,2.0843,2.0826,2.0799,2.079,2.0763,2.0798,2.0767,2.0747,2.0771,2.0731,2.0726,2.071,2.0662,2.064,2.0655,2.0561,2.0592,2.0587,2.0584,2.0556,2.0546,2.0537,2.0656,2.0656,2.0657,0,0,2.0781,2.0774,2.0738,2.0729,2.0715,2.0717,2.0708,2.0698,2.0696,2.0656,2.0674,2.065,2.0607,2.0595,2.0583,2.0512,2.0525,2.0504,2.0464,2.0435,2.0427,2.042,2.0393,2.0384,2.0498,2.0498,2.0498,0,2.0745,2.0706,2.0717,2.0686,2.0673,2.0696,2.0659,2.0649,2.0628,2.0618,2.0636,2.0583,2.0574,2.0523,2.0506,2.0496,2.0485,2.0505,2.0428,2.042,2.0413,2.0388,2.0378,2.0496,2.0496,2.0496,2.0496,0,2.0662,2.0635,2.0607,2.0587,2.0572,2.0538,2.0543,2.0526,2.0535,2.0535,2.0494,2.0484,2.0459,2.0448,2.0456,2.0398,2.0408,2.0427,2.0457,2.04,2.0377,2.0367,2.0492,2.0493,2.0494,2.0494,0,0,2.0565,2.0555,2.0544,2.0536,2.0523,2.0502,2.0469,2.0446,2.0431,2.0416,2.0388,2.0351,2.0369,2.0356,2.0363,2.0338,2.0281,2.0359,2.0359,2.0344,2.0216,2.0201,2.019,2.0291,2.0289,2.0288,2.0217,0,2.0496,2.044,2.045,2.0394,2.0369,2.0391,2.0363,2.0351,2.0351,2.0328,2.0328,2.0301,2.0327,2.0319,2.0296,2.0293,2.0255,2.0298,2.0263,2.0262,2.0265,2.0178,2.0161,2.0095,2.0208,2.0207,2.0205,0,2.0406,2.039,2.0333,2.0325,2.0315,2.0289,2.0269,2.0248,2.0235,2.0237,2.0223,2.0235,2.0201,2.0234,2.0187,2.0216,2.0203,2.02,2.0197,2.0193,2.0229,2.0169,2.0074,2.0063,2.0191,2.0192,2.0193,0,2.034,2.0304,2.0265,2.0257,2.0248,2.0229,2.0224,2.0214,2.0199,2.0182,2.0173,2.0151,2.0139,2.0122,2.0127,2.0151,2.0079,2.0113,2.0078,2.0078,2.006,2.0061,1.996,2.0054,2.0054,2.0055,2.0055,0,2.0261,2.0224,2.0235,2.0211,2.0171,2.0183,2.0143,2.014,2.0131,2.0107,2.0125,2.0101,2.0111,2.0087,2.0091,2.0052,2.0046,2.0045,2.0047,2.0043,2.0043,2.0033,2.0037,2.0052,2.0053,2.0053,2.0054,0,2.0179,2.0185,2.0144,2.0139,2.0137,2.0108,2.0103,2.008,2.0082,2.005,2.0043,2.0045,2.0019,2.0023,1.9994,1.9997,1.9946,1.9954,1.9951,1.9952,1.9917,1.9919,1.9804,1.9789,1.9895,1.9894,1.9893,0,2.0127,2.01,2.0092,2.0078,2.0072,2.0047,2.0034,2.0045,2.0029,2.0014,1.9993,1.9969,1.9949,1.9906,1.9904,1.9881,1.9888,1.9849,1.9884,1.9881,1.9885,1.9886,1.9883,1.9841,1.984,1.9839,1.9838,0,2.0033,2.0038,2.0018,1.9999,1.9982,1.9968,1.9955,1.9941,1.9951,1.9933,1.9907,1.9892,1.9863,1.9838,1.9817,1.9811,1.9825,1.9828,1.9818,1.9813,1.9812,1.9811,1.993,1.9829,1.983,1.9831,1.9831,1.9832,1.9964,1.9941,1.9932,1.9909,1.9901,1.9889,1.9867,1.9867,1.9846,1.9823,1.9831,1.9801,1.979,1.9764,1.9756,1.9732,1.9746,1.9733,1.9729,1.9725,1.9721,1.9817,1.9729,1.9729,1.9729,1.9729,1.9729,0,1.987,1.9866,1.9845,1.9827,1.9809,1.9827,1.9814,1.9797,1.9771,1.976,1.9741,1.9711,1.9688,1.9685,1.9662,1.9644,1.965,1.9637,1.9638,1.9636,1.971,1.972,1.9633,1.9633,1.9633,1.9633,1.9633,1.9633,1.9819,1.9781,1.9784,1.9743,1.9739,1.971,1.9701,1.969,1.9682,1.9648,1.9629,1.9628,1.962,1.9597,1.9576,1.9576,1.9566,1.955,1.9553,1.9621,1.9631,1.964,1.9649,1.9549,1.9549,1.9481,1.948,1.9479]}]]